Regional Weather Roundup
Issued by NWS

Home | Current Version | Previous Version | Graphics & Text | Print | Product List | Glossary On
Versions: 1 2 3 4 5 6 7 8 9 10 11 12 13 14 15 16 17 18 19 20 21 22 23 24 25 26 27 28 29 30 31 32 33 34 35 36 37 38 39 40 41 42 43 44 45 46 47 48 49 50
619
ASUS43 KBIS 270302
RWRND

NORTH DAKOTA REGIONAL WEATHER ROUNDUP
NATIONAL WEATHER SERVICE BISMARCK ND
1000 PM CDT THU MAY 26 2016

NOTE: "FAIR" INDICATES FEW OR NO CLOUDS BELOW 12,000 FEET WITH NO
SIGNIFICANT WEATHER AND/OR OBSTRUCTIONS TO VISIBILITY.


NDZ001>003-009>011-017-270400-
NORTHWEST NORTH DAKOTA

CITY           SKY/WX    TMP DP  RH WIND       PRES   REMARKS
WILLISTON      CLOUDY    55  49  80 E5        29.83R
MINOT          CLOUDY    58  50  75 W7        29.81R
MINOT AFB      MOCLDY    57  53  88 N3        29.80R
$$

NDZ018>021-031>035-040>046-270400-
SOUTHWEST NORTH DAKOTA

CITY           SKY/WX    TMP DP  RH WIND       PRES   REMARKS
BISMARCK       PTCLDY    62  48  60 NE7       29.82R
DICKINSON      CLEAR     51  41  68 NW6       29.82R
GARRISON         N/A     53  50  89 N6        29.81R
HETTINGER ARPT CLEAR     48  41  76 NW8       29.86R
$$

NDZ004>008-012>016-024-026-027-054-270400-
NORTHEAST NORTH DAKOTA

CITY           SKY/WX    TMP DP  RH WIND       PRES   REMARKS
GRAND FORKS    CLEAR     56  52  86 NW7       29.78S
GRND FRKS AFB  CLEAR     58  54  85 NW6       29.79S
DEVILS LAKE    CLOUDY    57  53  86 N6        29.80R
$$

NDZ022-023-025-028>030-036>039-047>053-270400-
SOUTHEAST NORTH DAKOTA

CITY           SKY/WX    TMP DP  RH WIND       PRES   REMARKS
FARGO          MOCLDY    66  56  70 E7        29.75F
JAMESTOWN      MOCLDY    61  55  81 NE15      29.77F
$$





USA.gov is the U.S. government's official web portal to all federal, state and local government web resources and services.